{"data":{"norad_id":65090,"intl_designator":"2025-167N","name":"STARLINK-34673","alt_names":[],"object_type":"PAYLOAD","status":"ACTIVE","operator":null,"country":"US","launch_date":"2025-08-04","launch_site_code":"AFETR","launch_vehicle":null,"mission":null,"orbit_class":"UNKNOWN","rcs_meters":null,"size_class":null,"mass_kg":null,"dimensions":null,"purposes":["comms"],"wikipedia_slug":null,"has_3d_model":false,"image_url":null,"decayed_at":null,"tle_current":{"epoch":"2026-09-20T13:01:14.369952Z","epoch_age_seconds":117233,"freshness":"FRESH","line1":"1 65090U 25167N   26263.54252743  .00006909  00000+0  23411-3 0  9999","line2":"2 65090  53.1620 201.5175 0001501  84.5623 275.5550 15.31713984 63319","mean_motion":15.31713984,"eccentricity":0.0001501,"inclination_deg":53.162,"raan_deg":201.5175,"arg_perigee_deg":84.5623,"mean_anomaly_deg":275.555,"bstar":0.00023411,"rev_number":6331,"period_min":94.012329654359,"perigee_km":469.67029978644,"apogee_km":471.72632014649,"semimajor_km":6848.8353099665,"source":"CELESTRAK","updated_at":"2026-09-21T09:00:35.523391Z"}}}